Time,TemperatureF,DewpointF,PressureIn,WindDirection,WindDirectionDegrees,WindSpeedMPH,WindSpeedGustMPH,Humidity,HourlyPrecipIn,Conditions,Clouds,dailyrainin,SoftwareType,DateUTC
2013-10-12 00:04:00,55.4,47.2,29.91,ESE,109,0.0,0.0,74,0.00,,CLR,0.00,VWS V14.01,2013-10-12 07:04:00,
2013-10-12 00:09:00,55.2,47.1,29.91,ESE,109,0.0,0.0,74,0.00,,CLR,0.00,VWS V14.01,2013-10-12 07:09:00,
2013-10-12 00:14:00,55.0,46.9,29.91,ESE,109,0.0,0.0,74,0.00,,CLR,0.00,VWS V14.01,2013-10-12 07:14:00,
2013-10-12 00:19:00,54.8,46.7,29.91,ESE,109,0.0,0.0,74,0.00,,CLR,0.00,VWS V14.01,2013-10-12 07:19:00,
2013-10-12 00:24:00,54.8,46.7,29.91,ESE,109,0.0,0.0,74,0.00,,CLR,0.00,VWS V14.01,2013-10-12 07:24:00,
2013-10-12 00:29:00,54.8,46.7,29.91,ESE,109,0.0,0.0,74,0.00,,CLR,0.00,VWS V14.01,2013-10-12 07:29:00,
2013-10-12 00:34:00,54.8,46.7,29.91,ESE,109,0.0,0.0,74,0.00,,CLR,0.00,VWS V14.01,2013-10-12 07:34:00,
2013-10-12 00:39:00,54.7,46.5,29.91,ESE,109,0.0,0.0,74,0.00,,CLR,0.00,VWS V14.01,2013-10-12 07:39:00,
2013-10-12 00:44:00,54.5,46.4,29.91,ESE,109,0.0,0.0,74,0.00,,CLR,0.00,VWS V14.01,2013-10-12 07:44:00,
2013-10-12 00:49:00,54.5,46.4,29.91,ESE,109,0.0,0.0,74,0.00,,CLR,0.00,VWS V14.01,2013-10-12 07:49:00,
2013-10-12 00:54:00,54.7,46.9,29.91,ESE,109,0.0,0.0,75,0.00,,CLR,0.00,VWS V14.01,2013-10-12 07:54:00,
2013-10-12 00:59:00,54.5,47.1,29.91,ESE,109,0.0,0.0,76,0.00,,CLR,0.00,VWS V14.01,2013-10-12 07:59:00,
2013-10-12 01:04:00,54.3,46.6,29.91,ESE,109,0.0,0.0,75,0.00,,CLR,0.00,VWS V14.01,2013-10-12 08:04:00,
2013-10-12 01:09:00,54.3,46.6,29.91,ESE,109,0.0,0.0,75,0.00,,CLR,0.00,VWS V14.01,2013-10-12 08:09:00,
2013-10-12 01:14:00,54.3,46.6,29.91,ESE,109,0.0,0.0,75,0.00,,CLR,0.00,VWS V14.01,2013-10-12 08:14:00,
2013-10-12 01:19:00,54.3,46.6,29.91,ESE,109,0.0,0.0,75,0.00,,CLR,0.00,VWS V14.01,2013-10-12 08:19:00,
2013-10-12 01:24:00,54.1,46.4,29.91,ESE,109,0.0,0.0,75,0.00,,CLR,0.00,VWS V14.01,2013-10-12 08:24:00,
2013-10-12 01:29:00,54.1,46.4,29.91,ESE,109,0.0,0.0,75,0.00,,CLR,0.00,VWS V14.01,2013-10-12 08:29:00,
2013-10-12 01:34:00,53.9,46.2,29.91,ESE,109,0.0,0.0,75,0.00,,CLR,0.00,VWS V14.01,2013-10-12 08:34:00,
2013-10-12 01:39:00,53.9,46.2,29.91,ESE,109,0.0,0.0,75,0.00,,CLR,0.00,VWS V14.01,2013-10-12 08:39:00,
2013-10-12 01:44:00,53.9,46.2,29.91,ESE,109,0.0,0.0,75,0.00,,CLR,0.00,VWS V14.01,2013-10-12 08:44:00,
2013-10-12 01:49:00,53.9,46.2,29.91,ESE,109,0.0,0.0,75,0.00,,CLR,0.00,VWS V14.01,2013-10-12 08:49:00,
2013-10-12 01:54:00,53.8,46.0,29.91,ESE,109,0.0,0.0,75,0.00,,CLR,0.00,VWS V14.01,2013-10-12 08:54:00,
2013-10-12 01:59:00,53.6,45.9,29.91,ESE,109,0.0,0.0,75,0.00,,CLR,0.00,VWS V14.01,2013-10-12 08:59:00,
2013-10-12 02:04:00,53.6,45.9,29.91,ESE,109,0.0,0.0,75,0.00,,CLR,0.00,VWS V14.01,2013-10-12 09:04:00,
2013-10-12 02:09:00,53.6,45.9,29.91,ESE,109,0.0,0.0,75,0.00,,CLR,0.00,VWS V14.01,2013-10-12 09:09:00,
2013-10-12 02:14:00,53.8,46.0,29.91,ESE,109,0.0,0.0,75,0.00,,CLR,0.00,VWS V14.01,2013-10-12 09:14:00,
2013-10-12 02:19:00,53.6,45.9,29.91,North,353,2.2,2.7,75,0.00,,CLR,0.00,VWS V14.01,2013-10-12 09:19:00,
2013-10-12 02:24:00,53.6,45.9,29.91,NNE,31,3.6,3.6,75,0.00,,CLR,0.00,VWS V14.01,2013-10-12 09:24:00,
2013-10-12 02:29:00,53.8,46.4,29.91,NNE,33,4.0,4.0,76,0.00,,CLR,0.00,VWS V14.01,2013-10-12 09:29:00,
2013-10-12 02:34:00,53.8,46.4,29.91,NNE,25,3.6,3.6,76,0.00,,CLR,0.00,VWS V14.01,2013-10-12 09:34:00,
2013-10-12 02:39:00,53.8,46.4,29.91,NNE,25,0.0,0.0,76,0.00,,CLR,0.00,VWS V14.01,2013-10-12 09:39:00,
2013-10-12 02:44:00,53.6,46.2,29.91,NNE,25,0.0,0.0,76,0.00,,CLR,0.00,VWS V14.01,2013-10-12 09:44:00,
2013-10-12 02:49:00,53.4,46.0,29.91,NNE,25,0.0,0.0,76,0.00,,CLR,0.00,VWS V14.01,2013-10-12 09:49:00,
2013-10-12 02:54:00,53.6,46.2,29.91,NNE,26,0.0,0.0,76,0.00,,CLR,0.00,VWS V14.01,2013-10-12 09:54:00,
2013-10-12 02:59:00,53.2,45.9,29.91,NNE,25,0.0,0.0,76,0.00,,CLR,0.00,VWS V14.01,2013-10-12 09:59:00,
2013-10-12 03:04:00,53.0,45.7,29.88,NNE,25,0.0,0.0,76,0.00,,CLR,0.00,VWS V14.01,2013-10-12 10:04:00,
2013-10-12 03:09:00,52.9,45.5,29.88,NNE,25,0.0,0.0,76,0.00,,CLR,0.00,VWS V14.01,2013-10-12 10:09:00,
2013-10-12 03:14:00,52.9,45.5,29.88,NNE,25,0.0,0.0,76,0.00,,CLR,0.00,VWS V14.01,2013-10-12 10:14:00,
2013-10-12 03:19:00,52.9,45.9,29.91,NNE,25,0.0,0.0,77,0.00,,CLR,0.00,VWS V14.01,2013-10-12 10:19:00,
2013-10-12 03:24:00,52.9,45.9,29.91,NNE,25,0.0,0.0,77,0.00,,CLR,0.00,VWS V14.01,2013-10-12 10:24:00,
2013-10-12 03:29:00,52.7,45.7,29.91,NNE,25,0.0,0.0,77,0.00,,CLR,0.00,VWS V14.01,2013-10-12 10:29:00,
2013-10-12 03:34:00,52.7,45.7,29.88,NNE,26,0.0,0.0,77,0.00,,CLR,0.00,VWS V14.01,2013-10-12 10:34:00,
2013-10-12 03:39:00,52.3,45.3,29.88,NNE,26,0.0,0.0,77,0.00,,CLR,0.00,VWS V14.01,2013-10-12 10:39:00,
2013-10-12 03:44:00,52.1,45.2,29.88,NNE,25,0.0,0.0,77,0.00,,CLR,0.00,VWS V14.01,2013-10-12 10:44:00,
2013-10-12 03:49:00,52.0,45.0,29.88,NNE,25,0.0,0.0,77,0.00,,CLR,0.00,VWS V14.01,2013-10-12 10:49:00,
2013-10-12 03:54:00,51.8,44.8,29.88,NNE,25,0.0,0.0,77,0.00,,CLR,0.00,VWS V14.01,2013-10-12 10:54:00,
2013-10-12 03:59:00,52.0,45.0,29.88,NNE,25,0.0,0.0,77,0.00,,CLR,0.00,VWS V14.01,2013-10-12 10:59:00,
2013-10-12 04:04:00,51.8,44.8,29.88,NNE,25,0.0,0.0,77,0.00,,CLR,0.00,VWS V14.01,2013-10-12 11:04:00,
2013-10-12 04:09:00,51.6,44.6,29.88,NNE,26,0.0,0.0,77,0.00,,CLR,0.00,VWS V14.01,2013-10-12 11:09:00,
2013-10-12 04:14:00,51.6,44.6,29.88,NNE,25,0.0,0.0,77,0.00,,CLR,0.00,VWS V14.01,2013-10-12 11:14:00,
2013-10-12 04:19:00,51.4,44.5,29.88,NNE,25,0.0,0.0,77,0.00,,CLR,0.00,VWS V14.01,2013-10-12 11:19:00,
2013-10-12 04:24:00,51.4,44.8,29.88,NNE,25,0.0,0.0,78,0.00,,CLR,0.00,VWS V14.01,2013-10-12 11:24:00,
2013-10-12 04:29:00,51.4,44.8,29.88,NNE,25,0.0,0.0,78,0.00,,CLR,0.00,VWS V14.01,2013-10-12 11:29:00,
2013-10-12 04:34:00,51.2,44.6,29.88,NNE,25,0.0,0.0,78,0.00,,CLR,0.00,VWS V14.01,2013-10-12 11:34:00,
2013-10-12 04:39:00,51.1,44.5,29.88,NNE,25,0.0,0.0,78,0.00,,CLR,0.00,VWS V14.01,2013-10-12 11:39:00,
2013-10-12 04:44:00,51.1,44.5,29.88,NNE,25,0.0,0.0,78,0.00,,CLR,0.00,VWS V14.01,2013-10-12 11:44:00,
2013-10-12 04:49:00,51.1,44.5,29.91,NNE,25,0.0,0.0,78,0.00,,CLR,0.00,VWS V14.01,2013-10-12 11:49:00,
2013-10-12 04:54:00,51.1,44.5,29.91,NNE,25,0.0,0.0,78,0.00,,CLR,0.00,VWS V14.01,2013-10-12 11:54:00,
2013-10-12 04:59:00,51.1,44.5,29.91,NNE,25,0.0,0.0,78,0.00,,CLR,0.00,VWS V14.01,2013-10-12 11:59:00,
2013-10-12 05:04:00,50.9,44.3,29.91,NNE,25,0.0,0.0,78,0.00,,CLR,0.00,VWS V14.01,2013-10-12 12:04:00,
2013-10-12 05:09:00,50.9,44.3,29.91,NNE,26,0.0,0.0,78,0.00,,CLR,0.00,VWS V14.01,2013-10-12 12:09:00,
2013-10-12 05:14:00,50.7,44.1,29.91,NNE,25,3.1,3.1,78,0.00,,CLR,0.00,VWS V14.01,2013-10-12 12:14:00,
2013-10-12 05:19:00,50.7,44.4,29.88,NNE,25,0.0,0.0,79,0.00,,CLR,0.00,VWS V14.01,2013-10-12 12:19:00,
2013-10-12 05:24:00,50.7,44.4,29.88,NNE,25,0.0,0.0,79,0.00,,CLR,0.00,VWS V14.01,2013-10-12 12:24:00,
2013-10-12 05:29:00,50.5,44.3,29.88,NNE,25,0.0,0.0,79,0.00,,CLR,0.00,VWS V14.01,2013-10-12 12:29:00,
2013-10-12 05:34:00,50.3,44.1,29.91,NNE,25,0.0,0.0,79,0.00,,CLR,0.00,VWS V14.01,2013-10-12 12:34:00,
2013-10-12 05:39:00,50.3,44.1,29.91,NNE,26,0.0,0.0,79,0.00,,CLR,0.00,VWS V14.01,2013-10-12 12:39:00,
2013-10-12 05:45:00,50.3,44.1,29.91,NNE,25,0.0,0.0,79,0.00,,CLR,0.00,VWS V14.01,2013-10-12 12:45:00,
2013-10-12 05:50:00,50.2,43.9,29.91,NNE,25,0.0,0.0,79,0.00,,CLR,0.00,VWS V14.01,2013-10-12 12:50:00,
2013-10-12 05:56:00,50.0,43.7,29.91,NNE,25,0.0,0.0,79,0.00,,CLR,0.00,VWS V14.01,2013-10-12 12:56:00,
2013-10-12 06:01:00,49.8,43.6,29.91,NNE,25,0.0,0.0,79,0.00,,CLR,0.00,VWS V14.01,2013-10-12 13:01:00,
2013-10-12 06:07:00,49.8,43.6,29.91,NNE,25,0.0,0.0,79,0.00,,CLR,0.00,VWS V14.01,2013-10-12 13:07:00,
2013-10-12 06:13:00,49.6,43.7,29.91,NNE,25,0.0,0.0,80,0.00,,CLR,0.00,VWS V14.01,2013-10-12 13:13:00,
2013-10-12 06:18:00,49.4,43.5,29.91,NNE,25,0.0,0.0,80,0.00,,CLR,0.00,VWS V14.01,2013-10-12 13:18:00,
2013-10-12 06:23:00,49.4,43.5,29.91,NNE,25,0.0,0.0,80,0.00,,CLR,0.00,VWS V14.01,2013-10-12 13:23:00,
2013-10-12 06:28:00,49.4,43.5,29.91,NNE,25,0.0,0.0,80,0.00,,CLR,0.00,VWS V14.01,2013-10-12 13:28:00,
2013-10-12 06:34:00,49.4,43.5,29.91,NNE,25,0.0,0.0,80,0.00,,CLR,0.00,VWS V14.01,2013-10-12 13:34:00,
2013-10-12 06:39:00,49.4,43.5,29.91,NNE,25,0.0,0.0,80,0.00,,CLR,0.00,VWS V14.01,2013-10-12 13:39:00,
2013-10-12 06:44:00,49.3,43.4,29.91,NNE,25,0.0,0.0,80,0.00,,CLR,0.00,VWS V14.01,2013-10-12 13:44:00,
2013-10-12 06:49:00,49.1,43.2,29.91,NNE,25,0.0,0.0,80,0.00,,CLR,0.00,VWS V14.01,2013-10-12 13:49:00,
2013-10-12 06:54:00,49.1,43.2,29.91,NNE,25,0.0,0.0,80,0.00,,CLR,0.00,VWS V14.01,2013-10-12 13:54:00,
2013-10-12 06:59:00,48.9,43.0,29.91,NNE,25,0.0,0.0,80,0.00,,CLR,0.00,VWS V14.01,2013-10-12 13:59:00,
2013-10-12 07:05:00,48.9,43.0,29.91,NNE,25,0.0,0.0,80,0.00,,CLR,0.00,VWS V14.01,2013-10-12 14:05:00,
2013-10-12 07:10:00,48.9,43.0,29.91,NNE,25,0.0,0.0,80,0.00,,CLR,0.00,VWS V14.01,2013-10-12 14:10:00,
2013-10-12 07:16:00,49.1,43.2,29.91,NNE,25,0.0,0.0,80,0.00,,CLR,0.00,VWS V14.01,2013-10-12 14:16:00,
2013-10-12 07:21:00,49.1,43.2,29.91,NNE,25,0.0,0.0,80,0.00,,CLR,0.00,VWS V14.01,2013-10-12 14:21:00,
2013-10-12 07:27:00,49.3,43.4,29.91,NNE,25,0.0,0.0,80,0.00,,CLR,0.00,VWS V14.01,2013-10-12 14:27:00,
2013-10-12 07:33:00,49.3,43.4,29.91,NNE,25,0.0,0.0,80,0.00,,CLR,0.00,VWS V14.01,2013-10-12 14:33:00,
2013-10-12 07:38:00,49.6,43.7,29.91,NNE,25,0.0,0.0,80,0.00,,CLR,0.00,VWS V14.01,2013-10-12 14:38:00,
2013-10-12 07:44:00,50.2,44.2,29.91,NNE,25,0.0,0.0,80,0.00,,CLR,0.00,VWS V14.01,2013-10-12 14:44:00,
2013-10-12 07:49:00,50.5,44.6,29.91,NNE,25,0.0,0.0,80,0.00,,CLR,0.00,VWS V14.01,2013-10-12 14:49:00,
2013-10-12 07:55:00,51.1,45.4,29.91,NNE,25,0.0,0.0,81,0.00,,CLR,0.00,VWS V14.01,2013-10-12 14:55:00,
2013-10-12 08:01:00,51.4,45.8,29.91,NNE,25,0.0,0.0,81,0.00,,CLR,0.00,VWS V14.01,2013-10-12 15:01:00,
2013-10-12 08:06:00,51.8,46.1,29.91,NNE,25,0.0,0.0,81,0.00,,CLR,0.00,VWS V14.01,2013-10-12 15:06:00,
2013-10-12 08:11:00,52.3,46.7,29.91,NNE,25,0.0,0.0,81,0.00,,CLR,0.00,VWS V14.01,2013-10-12 15:11:00,
2013-10-12 08:17:00,52.9,47.2,29.94,NNE,25,0.0,0.0,81,0.00,,CLR,0.00,VWS V14.01,2013-10-12 15:17:00,
2013-10-12 08:23:00,53.6,47.9,29.94,NNE,25,0.0,0.0,81,0.00,,CLR,0.00,VWS V14.01,2013-10-12 15:23:00,
2013-10-12 08:28:00,53.9,48.2,29.94,NNE,25,0.0,0.0,81,0.00,,CLR,0.00,VWS V14.01,2013-10-12 15:28:00,
2013-10-12 08:34:00,54.5,48.8,29.94,NNE,26,0.0,0.0,81,0.00,,CLR,0.00,VWS V14.01,2013-10-12 15:34:00,
2013-10-12 08:39:00,55.0,49.6,29.94,NNE,32,0.0,0.0,82,0.00,,SCT007,0.00,VWS V14.01,2013-10-12 15:39:00,
2013-10-12 08:45:00,55.7,50.0,29.94,East,90,3.1,3.6,81,0.00,,SCT007,0.00,VWS V14.01,2013-10-12 15:45:00,
2013-10-12 08:51:00,56.5,51.0,29.94,ENE,76,0.0,0.0,82,0.00,,SCT007,0.00,VWS V14.01,2013-10-12 15:51:00,
2013-10-12 08:57:00,57.0,51.6,29.94,ENE,60,0.0,0.0,82,0.00,,SCT007,0.00,VWS V14.01,2013-10-12 15:57:00,
2013-10-12 09:02:00,57.7,52.3,29.94,ENE,76,0.0,0.0,82,0.00,,SCT007,0.00,VWS V14.01,2013-10-12 16:02:00,
2013-10-12 09:08:00,58.6,53.2,29.94,ENE,60,0.0,3.1,82,0.00,,SCT007,0.00,VWS V14.01,2013-10-12 16:08:00,
2013-10-12 09:13:00,59.2,53.7,29.94,NNE,21,3.1,3.1,82,0.00,,SCT007,0.00,VWS V14.01,2013-10-12 16:13:00,
2013-10-12 09:19:00,60.1,54.6,29.94,North,4,2.7,2.7,82,0.00,,SCT007,0.00,VWS V14.01,2013-10-12 16:19:00,
2013-10-12 09:24:00,60.8,54.9,29.94,North,353,2.2,3.1,81,0.00,,SCT007,0.00,VWS V14.01,2013-10-12 16:24:00,
2013-10-12 09:30:00,61.5,55.6,29.94,North,353,0.0,0.0,81,0.00,,SCT007,0.00,VWS V14.01,2013-10-12 16:30:00,
2013-10-12 09:36:00,62.4,56.5,29.94,North,353,0.0,0.0,81,0.00,,SCT007,0.00,VWS V14.01,2013-10-12 16:36:00,
2013-10-12 09:42:00,63.1,57.2,29.94,NNE,23,2.7,3.1,81,0.00,,,0.00,VWS V14.01,2013-10-12 16:42:00,
2013-10-12 09:47:00,63.5,57.2,29.94,West,281,2.2,2.7,80,0.00,,,0.00,VWS V14.01,2013-10-12 16:47:00,
2013-10-12 09:53:00,63.5,54.7,29.94,West,274,2.7,3.1,73,0.00,,,0.00,VWS V14.01,2013-10-12 16:53:00,
2013-10-12 09:58:00,64.2,52.2,29.94,WNW,284,2.7,3.1,65,0.00,,,0.00,VWS V14.01,2013-10-12 16:58:00,
2013-10-12 10:04:00,66.0,53.9,29.94,WNW,284,0.0,0.0,65,0.00,,,0.00,VWS V14.01,2013-10-12 17:04:00,
2013-10-12 10:09:00,66.4,51.2,29.94,SSW,210,2.2,2.7,58,0.00,,,0.00,VWS V14.01,2013-10-12 17:09:00,
2013-10-12 10:15:00,67.4,50.2,29.94,North,357,2.7,3.6,54,0.00,,,0.00,VWS V14.01,2013-10-12 17:15:00,
2013-10-12 10:20:00,67.4,44.8,29.94,NW,307,0.0,3.1,44,0.00,,,0.00,VWS V14.01,2013-10-12 17:20:00,
2013-10-12 10:26:00,68.0,45.3,29.94,SSW,192,0.0,2.2,44,0.00,,,0.00,VWS V14.01,2013-10-12 17:26:00,
2013-10-12 10:31:00,68.2,43.6,29.94,SSW,194,2.2,4.0,41,0.00,,,0.00,VWS V14.01,2013-10-12 17:31:00,
2013-10-12 10:36:00,68.7,42.8,29.94,SSE,159,0.0,3.6,39,0.00,,,0.00,VWS V14.01,2013-10-12 17:36:00,
2013-10-12 10:42:00,69.2,41.2,29.94,WNW,293,3.1,4.9,36,0.00,,,0.00,VWS V14.01,2013-10-12 17:42:00,
2013-10-12 10:47:00,69.6,41.5,29.91,West,265,4.9,4.9,36,0.00,,,0.00,VWS V14.01,2013-10-12 17:47:00,
2013-10-12 10:53:00,69.6,40.0,29.91,WNW,301,0.0,3.1,34,0.00,,,0.00,VWS V14.01,2013-10-12 17:53:00,
2013-10-12 10:58:00,70.3,40.7,29.91,NNW,329,4.0,4.0,34,0.00,,,0.00,VWS V14.01,2013-10-12 17:58:00,
2013-10-12 11:03:00,69.6,39.2,29.91,WNW,286,4.9,4.9,33,0.00,,,0.00,VWS V14.01,2013-10-12 18:03:00,
2013-10-12 11:08:00,70.5,40.8,29.91,ESE,106,2.2,4.5,34,0.00,,,0.00,VWS V14.01,2013-10-12 18:08:00,
2013-10-12 11:14:00,70.7,40.2,29.91,SSW,194,4.0,6.3,33,0.00,,,0.00,VWS V14.01,2013-10-12 18:14:00,
2013-10-12 11:19:00,71.0,40.5,29.91,SSW,197,3.1,5.4,33,0.00,,,0.00,VWS V14.01,2013-10-12 18:19:00,
2013-10-12 11:25:00,71.0,41.3,29.91,SE,127,4.0,5.4,34,0.00,,,0.00,VWS V14.01,2013-10-12 18:25:00,
2013-10-12 11:31:00,71.8,40.3,29.91,ESE,123,3.1,6.3,32,0.00,,,0.00,VWS V14.01,2013-10-12 18:31:00,
2013-10-12 11:36:00,72.5,41.0,29.91,SSW,196,5.4,5.8,32,0.00,,,0.00,VWS V14.01,2013-10-12 18:36:00,
2013-10-12 11:42:00,72.3,40.8,29.91,South,173,4.0,5.8,32,0.00,,,0.00,VWS V14.01,2013-10-12 18:42:00,
2013-10-12 11:47:00,71.8,40.3,29.91,West,260,4.9,5.8,32,0.00,,,0.00,VWS V14.01,2013-10-12 18:47:00,
2013-10-12 11:52:00,72.1,40.7,29.91,SSE,165,3.6,4.0,32,0.00,,,0.00,VWS V14.01,2013-10-12 18:52:00,
2013-10-12 11:57:00,71.2,39.9,29.91,SSE,161,3.6,6.3,32,0.00,,,0.00,VWS V14.01,2013-10-12 18:57:00,
2013-10-12 12:02:00,72.5,41.0,29.91,SSW,207,5.4,6.3,32,0.00,,,0.00,VWS V14.01,2013-10-12 19:02:00,
2013-10-12 12:07:00,72.7,40.3,29.91,South,174,3.1,8.1,31,0.00,,,0.00,VWS V14.01,2013-10-12 19:07:00,
2013-10-12 12:13:00,72.5,40.2,29.91,South,191,7.6,8.1,31,0.00,,,0.00,VWS V14.01,2013-10-12 19:13:00,
2013-10-12 12:18:00,72.3,40.0,29.91,South,173,5.4,5.4,31,0.00,,,0.00,VWS V14.01,2013-10-12 19:18:00,
2013-10-12 12:23:00,72.7,40.3,29.91,SSW,207,5.4,6.3,31,0.00,,,0.00,VWS V14.01,2013-10-12 19:23:00,
2013-10-12 12:28:00,72.8,40.5,29.91,SSW,203,4.0,5.8,31,0.00,,,0.00,VWS V14.01,2013-10-12 19:28:00,
2013-10-12 12:33:00,73.6,40.2,29.91,SSW,193,5.4,6.3,30,0.00,,,0.00,VWS V14.01,2013-10-12 19:33:00,
2013-10-12 12:39:00,73.2,39.1,29.91,SW,234,3.1,5.8,29,0.00,,CLR,0.00,VWS V14.01,2013-10-12 19:39:00,
2013-10-12 12:45:00,73.0,39.8,29.88,SW,222,5.8,7.6,30,0.00,,CLR,0.00,VWS V14.01,2013-10-12 19:45:00,
2013-10-12 12:50:00,72.3,40.0,29.88,SSW,192,4.0,6.3,31,0.00,,CLR,0.00,VWS V14.01,2013-10-12 19:50:00,
2013-10-12 12:56:00,72.8,40.5,29.88,South,171,6.3,6.3,31,0.00,,CLR,0.00,VWS V14.01,2013-10-12 19:56:00,
2013-10-12 13:01:00,73.4,39.2,29.88,SSW,192,5.8,6.3,29,0.00,,CLR,0.00,VWS V14.01,2013-10-12 20:01:00,
2013-10-12 13:07:00,72.7,39.5,29.88,SW,215,4.0,7.6,30,0.00,,CLR,0.00,VWS V14.01,2013-10-12 20:07:00,
2013-10-12 13:13:00,73.6,39.4,29.88,SE,134,3.6,5.4,29,0.00,,CLR,0.00,VWS V14.01,2013-10-12 20:13:00,
2013-10-12 13:18:00,73.2,40.8,29.85,South,187,6.3,7.6,31,0.00,,CLR,0.00,VWS V14.01,2013-10-12 20:18:00,
2013-10-12 13:23:00,74.5,39.3,29.85,SSE,164,2.7,5.4,28,0.00,,CLR,0.00,VWS V14.01,2013-10-12 20:23:00,
2013-10-12 13:29:00,74.6,38.5,29.85,South,191,7.6,8.7,27,0.00,,CLR,0.00,VWS V14.01,2013-10-12 20:29:00,
2013-10-12 13:34:00,74.5,38.3,29.88,SW,217,3.1,5.4,27,0.00,,CLR,0.00,VWS V14.01,2013-10-12 20:34:00,
2013-10-12 13:39:00,74.1,39.0,29.88,SSW,213,5.8,6.3,28,0.00,,CLR,0.00,VWS V14.01,2013-10-12 20:39:00,
2013-10-12 13:44:00,73.9,37.9,29.88,SSW,203,6.3,8.1,27,0.00,,CLR,0.00,VWS V14.01,2013-10-12 20:44:00,
2013-10-12 13:49:00,73.7,38.6,29.88,SSW,204,5.4,6.7,28,0.00,,CLR,0.00,VWS V14.01,2013-10-12 20:49:00,
2013-10-12 13:55:00,73.7,39.5,29.88,SE,136,4.9,4.9,29,0.00,,CLR,0.00,VWS V14.01,2013-10-12 20:55:00,
2013-10-12 14:00:00,73.9,39.7,29.85,SSW,202,5.4,5.8,29,0.00,,CLR,0.00,VWS V14.01,2013-10-12 21:00:00,
2013-10-12 14:05:00,74.1,39.0,29.85,SSW,211,3.1,4.9,28,0.00,,CLR,0.00,VWS V14.01,2013-10-12 21:05:00,
2013-10-12 14:10:00,74.6,38.5,29.85,SSW,192,5.4,6.3,27,0.00,,CLR,0.00,VWS V14.01,2013-10-12 21:10:00,
2013-10-12 14:15:00,74.6,38.5,29.85,SSE,149,6.3,6.3,27,0.00,,CLR,0.00,VWS V14.01,2013-10-12 21:15:00,
2013-10-12 14:21:00,75.4,38.1,29.85,SSE,155,3.1,5.8,26,0.00,,CLR,0.00,VWS V14.01,2013-10-12 21:21:00,
2013-10-12 14:26:00,75.2,38.0,29.85,SW,214,5.8,6.3,26,0.00,,CLR,0.00,VWS V14.01,2013-10-12 21:26:00,
2013-10-12 14:31:00,75.9,37.6,29.85,SSW,192,5.4,6.3,25,0.00,,CLR,0.00,VWS V14.01,2013-10-12 21:31:00,
2013-10-12 14:36:00,75.7,37.4,29.85,SSE,163,3.6,5.8,25,0.00,,CLR,0.00,VWS V14.01,2013-10-12 21:36:00,
2013-10-12 14:41:00,75.9,37.6,29.85,SSW,206,3.1,5.4,25,0.00,,CLR,0.00,VWS V14.01,2013-10-12 21:41:00,
2013-10-12 14:47:00,75.0,37.8,29.85,SE,136,6.3,7.6,26,0.00,,CLR,0.00,VWS V14.01,2013-10-12 21:47:00,
2013-10-12 14:52:00,75.7,38.4,29.85,SW,215,4.9,5.8,26,0.00,,CLR,0.00,VWS V14.01,2013-10-12 21:52:00,
2013-10-12 14:58:00,75.4,37.1,29.85,South,191,3.6,5.4,25,0.00,,CLR,0.00,VWS V14.01,2013-10-12 21:58:00,
2013-10-12 15:03:00,75.4,36.1,29.85,SSW,209,3.1,8.3,24,0.00,,CLR,0.00,VWS V14.01,2013-10-12 22:03:00,
2013-10-12 15:09:00,74.6,38.5,29.85,SE,140,4.0,5.4,27,0.00,,CLR,0.00,VWS V14.01,2013-10-12 22:09:00,
2013-10-12 15:14:00,73.9,38.8,29.83,SE,138,6.3,6.3,28,0.00,,CLR,0.00,VWS V14.01,2013-10-12 22:14:00,
2013-10-12 15:20:00,74.5,38.3,29.83,South,174,4.9,5.8,27,0.00,,CLR,0.00,VWS V14.01,2013-10-12 22:20:00,
2013-10-12 15:26:00,74.8,38.6,29.83,SE,142,8.1,8.1,27,0.00,,CLR,0.00,VWS V14.01,2013-10-12 22:26:00,
2013-10-12 15:31:00,74.5,38.3,29.83,SSE,153,4.0,5.8,27,0.00,,CLR,0.00,VWS V14.01,2013-10-12 22:31:00,
2013-10-12 15:37:00,74.5,37.4,29.83,South,180,4.9,4.9,26,0.00,,CLR,0.00,VWS V14.01,2013-10-12 22:37:00,
2013-10-12 15:42:00,74.8,35.6,29.83,SSE,160,4.0,5.8,24,0.00,,CLR,0.00,VWS V14.01,2013-10-12 22:42:00,
2013-10-12 15:47:00,74.8,34.6,29.83,SSE,156,4.9,5.4,23,0.00,,CLR,0.00,VWS V14.01,2013-10-12 22:47:00,
2013-10-12 15:52:00,74.8,34.6,29.83,SE,142,6.3,8.1,23,0.00,,CLR,0.00,VWS V14.01,2013-10-12 22:52:00,
2013-10-12 15:58:00,75.0,35.8,29.83,SSE,158,3.6,6.3,24,0.00,,CLR,0.00,VWS V14.01,2013-10-12 22:58:00,
2013-10-12 16:04:00,75.4,35.0,29.83,SE,144,4.9,4.9,23,0.00,,CLR,0.00,VWS V14.01,2013-10-12 23:04:00,
2013-10-12 16:10:00,74.5,35.3,29.83,ESE,109,6.3,6.3,24,0.00,,CLR,0.00,VWS V14.01,2013-10-12 23:10:00,
2013-10-12 16:15:00,74.3,36.2,29.83,SE,133,3.1,5.4,25,0.00,,CLR,0.00,VWS V14.01,2013-10-12 23:15:00,
2013-10-12 16:20:00,75.2,33.8,29.83,South,177,3.1,5.8,22,0.00,,CLR,0.00,VWS V14.01,2013-10-12 23:20:00,
2013-10-12 16:25:00,75.7,35.3,29.83,SE,146,4.0,5.8,23,0.00,,CLR,0.00,VWS V14.01,2013-10-12 23:25:00,
2013-10-12 16:30:00,76.3,34.7,29.83,SSW,208,3.6,3.6,22,0.00,,CLR,0.00,VWS V14.01,2013-10-12 23:30:00,
2013-10-12 16:35:00,74.1,32.9,29.83,WNW,298,4.0,8.3,22,0.00,,CLR,0.00,VWS V14.01,2013-10-12 23:35:00,
2013-10-12 16:40:00,74.6,33.3,29.83,WNW,291,5.4,5.4,22,0.00,,CLR,0.00,VWS V14.01,2013-10-12 23:40:00,
2013-10-12 16:46:00,74.1,34.0,29.83,WNW,302,5.8,7.6,23,0.00,,CLR,0.00,VWS V14.01,2013-10-12 23:46:00,
2013-10-12 16:51:00,73.6,33.5,29.83,NW,320,6.7,7.6,23,0.00,,CLR,0.00,VWS V14.01,2013-10-12 23:51:00,
2013-10-12 16:56:00,72.5,34.7,29.83,NW,305,7.6,7.6,25,0.00,,CLR,0.00,VWS V14.01,2013-10-12 23:56:00,
2013-10-12 17:01:00,72.5,34.7,29.83,NNW,331,6.3,8.7,25,0.00,,CLR,0.00,VWS V14.01,2013-10-13 00:01:00,
2013-10-12 17:07:00,70.3,32.9,29.83,West,265,8.3,8.3,25,0.00,,CLR,0.00,VWS V14.01,2013-10-13 00:07:00,
2013-10-12 17:12:00,69.8,35.2,29.83,West,274,5.8,6.3,28,0.00,,CLR,0.00,VWS V14.01,2013-10-13 00:12:00,
2013-10-12 17:18:00,69.2,36.5,29.83,West,272,6.3,7.6,30,0.00,,CLR,0.00,VWS V14.01,2013-10-13 00:18:00,
2013-10-12 17:23:00,69.2,38.2,29.83,West,273,5.4,5.8,32,0.00,,CLR,0.00,VWS V14.01,2013-10-13 00:23:00,
2013-10-12 17:29:00,68.2,38.0,29.83,West,281,7.2,7.2,33,0.00,,CLR,0.00,VWS V14.01,2013-10-13 00:29:00,
2013-10-12 17:34:00,68.5,38.3,29.85,WNW,290,5.8,8.7,33,0.00,,CLR,0.00,VWS V14.01,2013-10-13 00:34:00,
2013-10-12 17:40:00,68.0,37.8,29.85,NNW,327,3.6,6.3,33,0.00,,CLR,0.00,VWS V14.01,2013-10-13 00:40:00,
2013-10-12 17:45:00,67.6,38.3,29.85,NW,310,10.5,10.5,34,0.00,,CLR,0.00,VWS V14.01,2013-10-13 00:45:00,
2013-10-12 17:50:00,67.3,38.7,29.85,SW,228,4.0,6.3,35,0.00,,CLR,0.00,VWS V14.01,2013-10-13 00:50:00,
2013-10-12 17:56:00,66.4,40.7,29.85,WNW,290,8.7,8.7,39,0.00,,CLR,0.00,VWS V14.01,2013-10-13 00:56:00,
2013-10-12 18:01:00,66.2,41.2,29.85,WNW,292,5.8,6.3,40,0.00,,CLR,0.00,VWS V14.01,2013-10-13 01:01:00,
2013-10-12 18:06:00,65.8,42.1,29.85,West,266,5.4,5.4,42,0.00,,CLR,0.00,VWS V14.01,2013-10-13 01:06:00,
2013-10-12 18:11:00,65.5,42.4,29.85,NW,305,8.1,10.1,43,0.00,,CLR,0.00,VWS V14.01,2013-10-13 01:11:00,
2013-10-12 18:17:00,65.1,42.7,29.85,WNW,299,3.6,8.3,44,0.00,,CLR,0.00,VWS V14.01,2013-10-13 01:17:00,
2013-10-12 18:22:00,64.6,43.3,29.85,WNW,293,7.6,10.1,46,0.00,,CLR,0.00,VWS V14.01,2013-10-13 01:22:00,
2013-10-12 18:27:00,64.2,44.7,29.85,WNW,300,3.1,5.8,49,0.00,,CLR,0.00,VWS V14.01,2013-10-13 01:27:00,
2013-10-12 18:32:00,63.8,44.9,29.85,West,281,5.8,8.1,50,0.00,,CLR,0.00,VWS V14.01,2013-10-13 01:32:00,
2013-10-12 18:38:00,63.7,45.2,29.85,WNW,286,3.6,8.3,51,0.00,,CLR,0.00,VWS V14.01,2013-10-13 01:38:00,
2013-10-12 18:43:00,63.5,45.6,29.85,West,265,5.4,5.4,52,0.00,,CLR,0.00,VWS V14.01,2013-10-13 01:43:00,
2013-10-12 18:49:00,63.3,45.4,29.85,WNW,292,8.7,8.7,52,0.00,,CLR,0.00,VWS V14.01,2013-10-13 01:49:00,
2013-10-12 18:54:00,62.9,45.1,29.85,West,273,4.0,5.8,52,0.00,,CLR,0.00,VWS V14.01,2013-10-13 01:54:00,
2013-10-12 19:00:00,62.6,44.7,29.85,West,264,6.3,6.3,52,0.00,,CLR,0.00,VWS V14.01,2013-10-13 02:00:00,
2013-10-12 19:06:00,62.4,45.5,29.85,WNW,300,3.6,6.7,54,0.00,,CLR,0.00,VWS V14.01,2013-10-13 02:06:00,
2013-10-12 19:10:00,62.4,45.5,29.85,WSW,251,4.9,6.3,54,0.00,,CLR,0.00,VWS V14.01,2013-10-13 02:10:00,
2013-10-12 19:15:00,62.2,45.9,29.85,WNW,288,3.6,8.1,55,0.00,,CLR,0.00,VWS V14.01,2013-10-13 02:15:00,
2013-10-12 19:21:00,62.2,46.3,29.85,West,276,5.8,7.6,56,0.00,,CLR,0.00,VWS V14.01,2013-10-13 02:21:00,
2013-10-12 19:26:00,61.9,46.0,29.85,West,279,4.0,8.1,56,0.00,,CLR,0.00,VWS V14.01,2013-10-13 02:26:00,
2013-10-12 19:32:00,61.9,46.0,29.85,West,261,3.6,5.8,56,0.00,,CLR,0.00,VWS V14.01,2013-10-13 02:32:00,
2013-10-12 19:37:00,61.7,46.3,29.85,West,281,5.4,6.3,57,0.00,,CLR,0.00,VWS V14.01,2013-10-13 02:37:00,
2013-10-12 19:43:00,61.5,46.6,29.85,WSW,254,3.6,5.4,58,0.00,,CLR,0.00,VWS V14.01,2013-10-13 02:43:00,
2013-10-12 19:49:00,61.5,46.6,29.85,WNW,290,0.0,3.1,58,0.00,,CLR,0.00,VWS V14.01,2013-10-13 02:49:00,
2013-10-12 19:54:00,61.5,46.6,29.85,WNW,286,2.2,3.6,58,0.00,,CLR,0.00,VWS V14.01,2013-10-13 02:54:00,
2013-10-12 20:00:00,61.3,46.4,29.85,NNW,336,0.0,0.0,58,0.00,,CLR,0.00,VWS V14.01,2013-10-13 03:00:00,
2013-10-12 20:05:00,61.1,46.3,29.85,NW,311,0.0,0.0,58,0.00,,CLR,0.00,VWS V14.01,2013-10-13 03:05:00,
2013-10-12 20:10:00,61.0,46.5,29.85,WNW,288,0.0,0.0,59,0.00,,CLR,0.00,VWS V14.01,2013-10-13 03:10:00,
2013-10-12 20:16:00,61.0,47.0,29.88,WNW,288,0.0,0.0,60,0.00,,CLR,0.00,VWS V14.01,2013-10-13 03:16:00,
2013-10-12 20:21:00,60.8,46.4,29.88,WNW,288,0.0,0.0,59,0.00,,CLR,0.00,VWS V14.01,2013-10-13 03:21:00,
2013-10-12 20:26:00,60.6,46.7,29.88,NW,304,0.0,0.0,60,0.00,,CLR,0.00,VWS V14.01,2013-10-13 03:26:00,
2013-10-12 20:31:00,60.6,47.1,29.88,NW,304,0.0,0.0,61,0.00,,CLR,0.00,VWS V14.01,2013-10-13 03:31:00,
2013-10-12 20:37:00,60.4,46.9,29.88,NW,304,0.0,0.0,61,0.00,,CLR,0.00,VWS V14.01,2013-10-13 03:37:00,
2013-10-12 20:42:00,60.1,46.6,29.88,NW,304,0.0,0.0,61,0.00,,CLR,0.00,VWS V14.01,2013-10-13 03:42:00,
2013-10-12 20:48:00,59.9,46.4,29.88,NW,304,0.0,0.0,61,0.00,,CLR,0.00,VWS V14.01,2013-10-13 03:48:00,
2013-10-12 20:53:00,59.7,46.2,29.88,NW,304,0.0,0.0,61,0.00,,CLR,0.00,VWS V14.01,2013-10-13 03:53:00,
2013-10-12 20:59:00,59.5,46.1,29.88,NW,304,0.0,0.0,61,0.00,,CLR,0.00,VWS V14.01,2013-10-13 03:59:00,
2013-10-12 21:01:00,59.5,46.1,29.88,NW,304,0.0,0.0,61,0.00,,CLR,0.00,VWS V14.01,2013-10-13 04:01:00,
2013-10-12 21:02:00,59.5,46.5,29.88,NW,304,0.0,0.0,62,0.00,,CLR,0.00,VWS V14.01,2013-10-13 04:02:00,
2013-10-12 21:03:00,59.5,46.5,29.88,NW,304,0.0,0.0,62,0.00,,CLR,0.00,VWS V14.01,2013-10-13 04:03:00,
2013-10-12 21:05:00,59.5,46.5,29.88,NW,304,0.0,0.0,62,0.00,,CLR,0.00,VWS V14.01,2013-10-13 04:05:00,
2013-10-12 21:09:00,59.5,46.9,29.88,NW,304,0.0,0.0,63,0.00,,CLR,0.00,VWS V14.01,2013-10-13 04:09:00,
2013-10-12 21:14:00,59.2,46.6,29.88,NW,304,0.0,0.0,63,0.00,,CLR,0.00,VWS V14.01,2013-10-13 04:14:00,
2013-10-12 21:18:00,59.0,46.4,29.88,NW,304,0.0,0.0,63,0.00,,CLR,0.00,VWS V14.01,2013-10-13 04:18:00,
2013-10-12 21:23:00,58.8,46.7,29.88,NW,304,0.0,0.0,64,0.00,,CLR,0.00,VWS V14.01,2013-10-13 04:23:00,
2013-10-12 21:29:00,58.6,46.9,29.88,NW,304,0.0,0.0,65,0.00,,CLR,0.00,VWS V14.01,2013-10-13 04:29:00,
2013-10-12 21:34:00,58.6,47.3,29.88,NW,304,0.0,0.0,66,0.00,,CLR,0.00,VWS V14.01,2013-10-13 04:34:00,
2013-10-12 21:40:00,58.4,47.1,29.88,NW,304,0.0,0.0,66,0.00,,CLR,0.00,VWS V14.01,2013-10-13 04:40:00,
2013-10-12 21:45:00,58.3,47.0,29.88,NW,304,0.0,0.0,66,0.00,,CLR,0.00,VWS V14.01,2013-10-13 04:45:00,
2013-10-12 21:51:00,58.1,46.8,29.88,NW,304,0.0,0.0,66,0.00,,CLR,0.00,VWS V14.01,2013-10-13 04:51:00,
2013-10-12 21:56:00,57.9,46.6,29.88,NW,304,0.0,0.0,66,0.00,,CLR,0.00,VWS V14.01,2013-10-13 04:56:00,
2013-10-12 22:02:00,57.7,46.0,29.88,NW,304,0.0,0.0,65,0.00,,CLR,0.00,VWS V14.01,2013-10-13 05:02:00,
2013-10-12 22:07:00,57.5,45.9,29.88,NW,304,0.0,0.0,65,0.00,,CLR,0.00,VWS V14.01,2013-10-13 05:07:00,
2013-10-12 22:13:00,57.4,45.7,29.88,NW,304,0.0,0.0,65,0.00,,CLR,0.00,VWS V14.01,2013-10-13 05:13:00,
2013-10-12 22:19:00,57.2,45.9,29.88,NW,304,0.0,0.0,66,0.00,,CLR,0.00,VWS V14.01,2013-10-13 05:19:00,
2013-10-12 22:24:00,57.0,45.8,29.88,NW,304,0.0,0.0,66,0.00,,CLR,0.00,VWS V14.01,2013-10-13 05:24:00,
2013-10-12 22:30:00,56.8,45.6,29.91,NW,304,0.0,0.0,66,0.00,,CLR,0.00,VWS V14.01,2013-10-13 05:30:00,
2013-10-12 22:36:00,56.6,45.8,29.91,NW,304,0.0,0.0,67,0.00,,CLR,0.00,VWS V14.01,2013-10-13 05:36:00,
2013-10-12 22:41:00,56.5,45.7,29.91,NW,304,0.0,0.0,67,0.00,,CLR,0.00,VWS V14.01,2013-10-13 05:41:00,
2013-10-12 22:46:00,56.5,45.7,29.91,NW,304,0.0,0.0,67,0.00,,CLR,0.00,VWS V14.01,2013-10-13 05:46:00,
2013-10-12 22:51:00,56.3,45.5,29.91,NW,304,0.0,0.0,67,0.00,,CLR,0.00,VWS V14.01,2013-10-13 05:51:00,
2013-10-12 22:57:00,56.1,45.3,29.91,NW,304,0.0,0.0,67,0.00,,CLR,0.00,VWS V14.01,2013-10-13 05:57:00,
2013-10-12 23:02:00,56.1,45.7,29.88,NW,304,0.0,0.0,68,0.00,,CLR,0.00,VWS V14.01,2013-10-13 06:02:00,
2013-10-12 23:08:00,56.1,46.5,29.88,NW,304,0.0,0.0,70,0.00,,CLR,0.00,VWS V14.01,2013-10-13 06:08:00,
2013-10-12 23:14:00,55.9,46.3,29.88,NW,304,0.0,0.0,70,0.00,,CLR,0.00,VWS V14.01,2013-10-13 06:14:00,
2013-10-12 23:19:00,55.7,46.1,29.88,NW,304,0.0,0.0,70,0.00,,CLR,0.00,VWS V14.01,2013-10-13 06:19:00,
2013-10-12 23:25:00,55.6,46.0,29.88,NW,304,0.0,0.0,70,0.00,,CLR,0.00,VWS V14.01,2013-10-13 06:25:00,
2013-10-12 23:30:00,55.4,45.8,29.91,NW,304,0.0,0.0,70,0.00,,CLR,0.00,VWS V14.01,2013-10-13 06:30:00,
2013-10-12 23:35:00,55.4,45.8,29.91,NW,304,0.0,0.0,70,0.00,,CLR,0.00,VWS V14.01,2013-10-13 06:35:00,
2013-10-12 23:40:00,55.2,45.6,29.91,NW,304,0.0,0.0,70,0.00,,CLR,0.00,VWS V14.01,2013-10-13 06:40:00,
2013-10-12 23:46:00,55.2,45.6,29.91,NW,304,0.0,0.0,70,0.00,,CLR,0.00,VWS V14.01,2013-10-13 06:46:00,
2013-10-12 23:51:00,55.2,45.6,29.91,NW,304,0.0,0.0,70,0.00,,CLR,0.00,VWS V14.01,2013-10-13 06:51:00,
2013-10-12 23:57:00,55.0,45.4,29.91,NW,304,0.0,0.0,70,0.00,,CLR,0.00,VWS V14.01,2013-10-13 06:57:00,